Sparta, WI

9:58 AM CST on December 13, 2019 (GMT -0600)
Sparta-Fort McCoy

Weather History for KCMY - November, 2019

Change the Weather History Date:

Wednesday, November 20, 2019

  Actual Average Record
Temperature  
Mean Temperature 38 °F -  
Max Temperature 43 °F 43 °F 64 °F (1975)
Min Temperature 32 °F 25 °F -4 °F (2014)
Degree Days  
Heating Degree Days 28    
Moisture  
Dew Point 36 °F    
Average Humidity 95    
Maximum Humidity 100    
Minimum Humidity 81    
Precipitation  
Precipitation 0.04 in - - ()
Sea Level Pressure  
Sea Level Pressure 30.03 in    
Wind  
Wind Speed 3 mph ()    
Max Wind Speed 12 mph    
Max Gust Speed 16 mph    
Visibility 6.2 miles    
Events Fog , Rain    
Averages and records for this station are not official NWS values.
T = Trace of Precipitation, MM = Missing Value Source: Averaged Metar Reports

Daily Weather History Graph

Daily Weather History Graph

Search for Another Location

Airport or City:

Astronomy

Nov. 20, 2019 Rise Set
Actual Time 7:04 AM CST 4:32 PM CST
Civil Twilight 6:32 AM CST 5:04 PM CST
Nautical Twilight 5:57 AM CST 5:39 PM CST
Astronomical Twilight 5:22 AM CST 6:13 PM CST
Moon No Moon Rise 1:45 PM CST (11/20)
Length of Visible Light 10h 31m
Length of Day
9h 28m
Last Quarter, 40% of the Moon is Illuminated
Nov 20
Last Quarter
Nov 26
New
Dec 4
First Quarter
Dec 11
Full
Dec 18
Last Quarter

Hourly Weather History & Observations

Time (CST) Temp. Windchill Dew Point Humidity Pressure Visibility Wind Dir Wind Speed Gust Speed Precip Events Conditions
12:15 AM 34.5 °F - 34.5 °F 100% 30.02 in 0.8 mi Calm Calm - N/A   Overcast
12:35 AM 34.7 °F - 34.7 °F 100% 30.02 in 0.5 mi Calm Calm - N/A Fog Fog
12:55 AM 34.5 °F - 34.5 °F 100% 30.02 in 0.5 mi Calm Calm - N/A Fog Fog
1:15 AM 34.7 °F - 34.7 °F 100% 30.03 in 0.5 mi Calm Calm - N/A Fog Fog
1:35 AM 34.5 °F - 34.5 °F 100% 30.04 in 0.5 mi Calm Calm - 0.01 in Fog Fog
1:55 AM 34.7 °F 31.8 °F 34.7 °F 100% 30.05 in 0.5 mi West 3.5 mph - 0.01 in Fog Fog
2:15 AM 34.7 °F - 34.7 °F 100% 30.05 in 0.5 mi Calm Calm - N/A Fog Fog
2:35 AM 34.7 °F - 34.7 °F 100% 30.06 in 0.8 mi Calm Calm - N/A   Overcast
2:55 AM 34.7 °F - 34.7 °F 100% 30.06 in 1.5 mi Calm Calm - N/A   Overcast
3:15 AM 34.7 °F - 34.7 °F 100% 30.08 in 2.5 mi Calm Calm - N/A   Overcast
3:55 AM 34.7 °F - 34.7 °F 100% 30.08 in 3.0 mi Calm Calm - N/A   Overcast
4:15 AM 34.5 °F - 34.5 °F 100% 30.08 in 3.0 mi Calm Calm - N/A   Overcast
4:35 AM 34.2 °F - 34.2 °F 100% 30.08 in 3.0 mi Calm Calm - N/A   Overcast
4:55 AM 34.2 °F - 34.2 °F 100% 30.08 in 2.0 mi Calm Calm - N/A   Overcast
5:15 AM 34.0 °F - 34.0 °F 100% 30.08 in 3.0 mi Calm Calm - N/A   Overcast
5:35 AM 34.0 °F - 34.0 °F 100% 30.08 in 3.0 mi Calm Calm - N/A   Overcast
5:55 AM 34.2 °F - 34.2 °F 100% 30.08 in 2.0 mi Calm Calm - N/A   Overcast
6:15 AM 34.0 °F - 34.0 °F 100% 30.09 in 1.8 mi Calm Calm - N/A   Overcast
6:35 AM 33.8 °F - 33.8 °F 100% 30.10 in 2.0 mi Calm Calm - N/A   Overcast
6:55 AM 33.8 °F 30.8 °F 33.8 °F 100% 30.10 in 1.0 mi South 3.5 mph - N/A   Overcast
7:15 AM 33.3 °F 30.2 °F 33.3 °F 100% 30.11 in 0.8 mi SE 3.5 mph - N/A   Overcast
7:35 AM 32.9 °F 28.5 °F 32.9 °F 100% 30.11 in 0.5 mi South 4.6 mph - N/A Fog Fog
7:55 AM 32.4 °F 29.1 °F 32.4 °F 100% 30.12 in 1.2 mi South 3.5 mph - N/A   Overcast
8:15 AM 32.2 °F 28.9 °F 32.2 °F 100% 30.12 in 1.8 mi SSE 3.5 mph - N/A   Overcast
8:35 AM 32.0 °F 28.7 °F 32.0 °F 100% 30.12 in 4.0 mi South 3.5 mph - N/A   Overcast
8:55 AM 32.2 °F 27.7 °F 32.2 °F 100% 30.12 in 4.0 mi South 4.6 mph - N/A   Overcast
9:15 AM 32.5 °F - 32.5 °F 100% 30.12 in 4.0 mi Calm Calm - N/A   Overcast
9:55 AM 33.4 °F - 33.4 °F 100% 30.12 in 7.0 mi Calm Calm - N/A   Overcast
10:15 AM 34.2 °F 31.2 °F 34.2 °F 100% 30.12 in 10.0 mi SSE 3.5 mph - N/A   Overcast
10:35 AM 34.9 °F 30.8 °F 34.9 °F 100% 30.12 in 10.0 mi East 4.6 mph - N/A   Overcast
10:55 AM 35.6 °F 30.7 °F 35.6 °F 100% 30.11 in 10.0 mi SE 5.8 mph - N/A   Overcast
11:15 AM 35.8 °F 31.9 °F 35.6 °F 99% 30.10 in 10.0 mi SE 4.6 mph - N/A   Overcast
11:35 AM 36.0 °F 33.3 °F 34.9 °F 96% 30.10 in 10.0 mi South 3.5 mph - N/A   Overcast
11:55 AM 36.7 °F 34.1 °F 35.4 °F 95% 30.09 in 10.0 mi SE 3.5 mph - N/A   Overcast
12:35 PM 37.4 °F 32.8 °F 35.6 °F 93% 30.08 in 10.0 mi SE 5.8 mph - N/A   Overcast
12:55 PM 37.6 °F 33.1 °F 35.6 °F 93% 30.07 in 10.0 mi ESE 5.8 mph - N/A   Overcast
1:15 PM 37.4 °F 32.1 °F 35.6 °F 93% 30.06 in 10.0 mi SE 6.9 mph - N/A   Overcast
1:35 PM 37.6 °F 33.1 °F 35.6 °F 93% 30.05 in 10.0 mi ESE 5.8 mph - N/A   Overcast
1:55 PM 37.6 °F 32.3 °F 35.8 °F 93% 30.05 in 10.0 mi SE 6.9 mph - N/A   Overcast
2:15 PM 37.8 °F 33.3 °F 36.0 °F 93% 30.05 in 10.0 mi ESE 5.8 mph - N/A   Overcast
2:35 PM 37.9 °F 32.7 °F 36.3 °F 94% 30.03 in 10.0 mi ESE 6.9 mph - N/A   Overcast
2:55 PM 37.9 °F 32.1 °F 36.3 °F 94% 30.03 in 10.0 mi ESE 8.1 mph - N/A   Overcast
3:15 PM 38.3 °F 33.9 °F 36.5 °F 93% 30.03 in 7.0 mi SE 5.8 mph - N/A   Overcast
3:35 PM 38.8 °F 33.8 °F 36.9 °F 93% 30.02 in 7.0 mi ESE 6.9 mph - N/A   Overcast
3:55 PM 39.2 °F 35.0 °F 37.0 °F 92% 30.02 in 7.0 mi East 5.8 mph - N/A   Overcast
4:15 PM 38.7 °F 35.2 °F 36.7 °F 93% 30.01 in 7.0 mi ESE 4.6 mph - N/A   Overcast
4:35 PM 38.5 °F 34.1 °F 36.9 °F 94% 30.00 in 7.0 mi East 5.8 mph - N/A   Overcast
4:55 PM 38.3 °F 33.2 °F 36.7 °F 94% 29.99 in 7.0 mi East 6.9 mph - N/A   Scattered Clouds
5:35 PM 38.3 °F 32.5 °F 36.9 °F 95% 29.97 in 7.0 mi ESE 8.1 mph - N/A   Scattered Clouds
5:55 PM 38.1 °F 33.7 °F 36.7 °F 95% 29.96 in 7.0 mi East 5.8 mph - N/A   Scattered Clouds
6:15 PM 38.3 °F 33.9 °F 36.9 °F 95% 29.95 in 7.0 mi East 5.8 mph - N/A   Clear
6:35 PM 39.2 °F 35.9 °F 37.2 °F 93% 29.95 in 10.0 mi East 4.6 mph - N/A   Clear
6:55 PM 40.1 °F 35.3 °F 37.4 °F 90% 29.95 in 10.0 mi SE 6.9 mph - N/A   Clear
7:15 PM 40.6 °F 34.8 °F 37.4 °F 88% 29.95 in 10.0 mi SE 9.2 mph - N/A   Clear
7:35 PM 41.0 °F 35.8 °F 37.4 °F 87% 29.95 in 10.0 mi SE 8.1 mph - N/A   Clear
7:55 PM 40.5 °F 35.1 °F 37.2 °F 88% 29.94 in 10.0 mi SE 8.1 mph - N/A   Clear
8:15 PM 40.8 °F 36.2 °F 37.2 °F 87% 29.93 in 10.0 mi SE 6.9 mph - N/A   Clear
8:35 PM 41.0 °F 35.8 °F 37.0 °F 86% 29.93 in 10.0 mi SSE 8.1 mph - N/A   Clear
8:55 PM 41.4 °F 36.2 °F 37.4 °F 86% 29.93 in 10.0 mi SSE 8.1 mph - N/A   Mostly Cloudy
9:15 PM 42.1 °F 37.7 °F 37.4 °F 83% 29.93 in 10.0 mi South 6.9 mph - N/A   Overcast
9:35 PM 43.0 °F 36.8 °F 37.4 °F 81% 29.91 in 10.0 mi SSE 11.5 mph 16.1 mph N/A   Overcast
9:55 PM 43.0 °F 37.7 °F 37.9 °F 82% 29.91 in 10.0 mi South 9.2 mph - N/A Rain Rain
10:15 PM 41.9 °F 35.9 °F 39.0 °F 90% 29.88 in 7.0 mi SE 10.4 mph - 0.02 in Rain Light Rain
10:35 PM 41.9 °F 37.5 °F 39.2 °F 90% 29.87 in 10.0 mi SE 6.9 mph - 0.03 in   Overcast
10:55 PM 41.9 °F 37.5 °F 39.2 °F 90% 29.86 in 10.0 mi SE 6.9 mph - 0.03 in   Overcast
11:35 PM 43.2 °F 37.9 °F 39.9 °F 88% 29.85 in 10.0 mi South 9.2 mph 16.1 mph N/A   Overcast
11:55 PM 43.3 °F 38.6 °F 40.1 °F 88% 29.83 in 10.0 mi South 8.1 mph - N/A   Overcast